When you browse on this site, cookies collect data to enhance your experience and personalize the content and advertising you see.
Visit our Privacy Policy to learn more. By continuing to use the site, you agree to this use of cookies and data.

Hourly Weather Kazincbarcika

Today, 22 September, Tuesday

Time Temperature Precipitation Wind Pressure Humidity
00:00 +15°C° 0 mm 1 mps 747 mmHg 62%
01:00 +14°C° 0 mm 1 mps 747 mmHg 64%
02:00 +13°C° 0 mm 0 mps 747 mmHg 65%
03:00 +12°C° 0 mm 0 mps 747 mmHg 67%
04:00 +12°C° 0 mm 0 mps 747 mmHg 69%
05:00 +13°C° 0 mm 0 mps 747 mmHg 65%
06:00 +14°C° 0 mm 0 mps 747 mmHg 62%
07:00 +15°C° 0 mm 0 mps 747 mmHg 55%
08:00 +18°C° 0 mm 0 mps 747 mmHg 50%
09:00 +22°C° 0 mm 1 mps 747 mmHg 44%
10:00 +24°C° 0 mm 1 mps 747 mmHg 38%
11:00 +25°C° 0 mm 1 mps 747 mmHg 36%
12:00 +26°C° 0 mm 2 mps 746 mmHg 33%
13:00 +27°C° 0 mm 2 mps 746 mmHg 31%
14:00 +27°C° 0 mm 2 mps 745 mmHg 33%
15:00 +26°C° 0 mm 2 mps 745 mmHg 34%
16:00 +26°C° 0 mm 2 mps 744 mmHg 36%
17:00 +24°C° 0 mm 1 mps 744 mmHg 41%
18:00 +22°C° 0 mm 1 mps 744 mmHg 47%
19:00 +19°C° 0 mm 1 mps 744 mmHg 53%
20:00 +19°C° 0 mm 1 mps 744 mmHg 54%
21:00 +18°C° 0 mm 1 mps 744 mmHg 55%
22:00 +18°C° 0 mm 1 mps 744 mmHg 57%
23:00 +16°C° 0 mm 1 mps 743 mmHg 58%

Tomorrow, 23 September, Wednesday

Time Temperature Precipitation Wind Pressure Humidity
00:00 +16°C° 0 mm 1 mps 743 mmHg 60%
01:00 +15°C° 0 mm 0 mps 743 mmHg 61%
02:00 +15°C° 0 mm 1 mps 743 mmHg 62%
03:00 +15°C° 0 mm 1 mps 743 mmHg 63%
04:00 +15°C° 0 mm 1 mps 742 mmHg 65%
05:00 +15°C° 0 mm 1 mps 742 mmHg 63%
06:00 +16°C° 0 mm 1 mps 742 mmHg 61%
07:00 +18°C° 0 mm 1 mps 742 mmHg 59%
08:00 +20°C° 0 mm 1 mps 742 mmHg 52%
09:00 +22°C° 0 mm 1 mps 742 mmHg 45%
10:00 +25°C° 0 mm 1 mps 742 mmHg 39%
11:00 +25°C° 0 mm 2 mps 742 mmHg 39%
12:00 +25°C° 0 mm 2 mps 742 mmHg 40%
13:00 +25°C° 0 mm 2 mps 741 mmHg 41%
14:00 +25°C° 0 mm 2 mps 741 mmHg 40%
15:00 +25°C° 0 mm 2 mps 741 mmHg 40%
16:00 +26°C° 0 mm 1 mps 740 mmHg 40%
17:00 +24°C° 0 mm 1 mps 740 mmHg 45%
18:00 +22°C° 0 mm 1 mps 740 mmHg 50%
19:00 +20°C° 0 mm 1 mps 740 mmHg 56%
20:00 +19°C° 0.1 mm 1 mps 740 mmHg 59%
21:00 +19°C° 0.1 mm 1 mps 740 mmHg 62%
22:00 +18°C° 0.1 mm 1 mps 740 mmHg 65%
23:00 +18°C° 0.2 mm 1 mps 740 mmHg 68%

Day after tomorrow, 24 September, Thursday

Time Temperature Precipitation Wind Pressure Humidity
00:00 +16°C° 0.2 mm 0 mps 740 mmHg 71%
01:00 +16°C° 0.2 mm 0 mps 740 mmHg 74%
02:00 +16°C° 0 mm 0 mps 740 mmHg 78%
03:00 +15°C° 0 mm 0 mps 740 mmHg 81%
04:00 +15°C° 0 mm 0 mps 740 mmHg 84%
05:00 +15°C° 0 mm 0 mps 740 mmHg 84%
06:00 +16°C° 0 mm 0 mps 740 mmHg 83%
07:00 +18°C° 0 mm 1 mps 741 mmHg 82%
08:00 +20°C° 0 mm 1 mps 741 mmHg 74%
09:00 +23°C° 0 mm 1 mps 741 mmHg 67%
10:00 +25°C° 0 mm 2 mps 741 mmHg 59%
11:00 +25°C° 0 mm 2 mps 741 mmHg 55%
12:00 +26°C° 0 mm 3 mps 741 mmHg 50%
13:00 +27°C° 0 mm 3 mps 741 mmHg 46%
14:00 +27°C° 0.1 mm 3 mps 741 mmHg 48%
15:00 +26°C° 0.1 mm 3 mps 741 mmHg 51%
16:00 +26°C° 0.1 mm 3 mps 740 mmHg 53%
17:00 +24°C° 0 mm 2 mps 740 mmHg 60%
18:00 +22°C° 0 mm 1 mps 740 mmHg 67%
19:00 +20°C° 0 mm 1 mps 740 mmHg 74%
20:00 +18°C° 0 mm 0 mps 740 mmHg 76%
21:00 +17°C° 0 mm 0 mps 741 mmHg 77%
22:00 +17°C° 0 mm 0 mps 741 mmHg 78%
23:00 +17°C° 0 mm 0 mps 740 mmHg 80%

25 September, Friday

Time Temperature Precipitation Wind Pressure Humidity
00:00 +16°C° 0 mm 0 mps 740 mmHg 81%
01:00 +16°C° 0 mm 0 mps 739 mmHg 82%
02:00 +18°C° 0 mm 1 mps 739 mmHg 82%
03:00 +18°C° 0 mm 1 mps 739 mmHg 82%
04:00 +18°C° 0 mm 1 mps 738 mmHg 82%
05:00 +18°C° 0 mm 1 mps 738 mmHg 80%
06:00 +19°C° 0 mm 1 mps 738 mmHg 78%
07:00 +19°C° 0 mm 1 mps 737 mmHg 76%
08:00 +19°C° 0.2 mm 2 mps 737 mmHg 72%
09:00 +21°C° 0.2 mm 2 mps 737 mmHg 68%
10:00 +22°C° 0.2 mm 3 mps 736 mmHg 63%
11:00 +23°C° 0.2 mm 4 mps 736 mmHg 58%
12:00 +25°C° 0.2 mm 4 mps 735 mmHg 53%
13:00 +26°C° 0.2 mm 5 mps 735 mmHg 48%
14:00 +25°C° 0.1 mm 4 mps 734 mmHg 54%
15:00 +22°C° 0.1 mm 3 mps 733 mmHg 59%
16:00 +21°C° 0.1 mm 2 mps 733 mmHg 65%
17:00 +21°C° 0.2 mm 1 mps 732 mmHg 68%
18:00 +20°C° 0.2 mm 1 mps 732 mmHg 72%
19:00 +20°C° 0.2 mm 1 mps 732 mmHg 76%
20:00 +19°C° 0.5 mm 1 mps 731 mmHg 77%
21:00 +19°C° 0.5 mm 1 mps 731 mmHg 79%
22:00 +19°C° 0.5 mm 1 mps 731 mmHg 81%
23:00 +18°C° 1.3 mm 2 mps 730 mmHg 84%

26 September, Saturday

Time Temperature Precipitation Wind Pressure Humidity
00:00 +17°C° 1.3 mm 2 mps 730 mmHg 88%
01:00 +17°C° 1.3 mm 3 mps 729 mmHg 92%
02:00 +17°C° 1.1 mm 3 mps 729 mmHg 92%
03:00 +17°C° 1.1 mm 3 mps 728 mmHg 93%
04:00 +17°C° 1.1 mm 4 mps 728 mmHg 94%
05:00 +17°C° 1.1 mm 4 mps 728 mmHg 94%
06:00 +17°C° 1.1 mm 4 mps 728 mmHg 94%
07:00 +17°C° 1.1 mm 4 mps 728 mmHg 94%
08:00 +17°C° 1.4 mm 4 mps 728 mmHg 93%
09:00 +18°C° 1.4 mm 4 mps 728 mmHg 91%
10:00 +18°C° 1.4 mm 4 mps 729 mmHg 90%
11:00 +18°C° 0.7 mm 3 mps 729 mmHg 87%
12:00 +18°C° 0.7 mm 2 mps 729 mmHg 84%
13:00 +19°C° 0.7 mm 1 mps 729 mmHg 81%
14:00 +18°C° 0 mm 1 mps 729 mmHg 81%
15:00 +17°C° 0 mm 2 mps 728 mmHg 82%
16:00 +17°C° 0 mm 2 mps 728 mmHg 82%
17:00 +16°C° 1.3 mm 2 mps 728 mmHg 85%
18:00 +14°C° 1.3 mm 3 mps 727 mmHg 89%
19:00 +13°C° 1.3 mm 4 mps 726 mmHg 92%
20:00 +12°C° 2.9 mm 5 mps 726 mmHg 92%
21:00 +11°C° 2.9 mm 6 mps 725 mmHg 92%
22:00 +11°C° 2.9 mm 7 mps 724 mmHg 93%
23:00 +10°C° 6.8 mm 7 mps 725 mmHg 93%

27 September, Sunday

Time Temperature Precipitation Wind Pressure Humidity
00:00 +10°C° 6.8 mm 7 mps 725 mmHg 93%
01:00 +9°C° 6.8 mm 7 mps 725 mmHg 93%
02:00 +9°C° 1.4 mm 6 mps 725 mmHg 92%
03:00 +9°C° 1.4 mm 5 mps 726 mmHg 92%
04:00 +10°C° 1.4 mm 4 mps 726 mmHg 92%
05:00 +8°C° 1.1 mm 4 mps 727 mmHg 92%
06:00 +8°C° 1.1 mm 4 mps 727 mmHg 92%
07:00 +8°C° 1.1 mm 4 mps 727 mmHg 92%
08:00 +8°C° 1.9 mm 5 mps 728 mmHg 92%
09:00 +9°C° 1.9 mm 5 mps 728 mmHg 92%
10:00 +9°C° 1.9 mm 6 mps 729 mmHg 92%
11:00 +8°C° 1.4 mm 7 mps 729 mmHg 91%
12:00 +7°C° 1.4 mm 8 mps 730 mmHg 89%
13:00 +7°C° 1.4 mm 9 mps 731 mmHg 88%
14:00 +6°C° 0.6 mm 8 mps 731 mmHg 89%
15:00 +6°C° 0.6 mm 8 mps 732 mmHg 89%
16:00 +6°C° 0.6 mm 7 mps 733 mmHg 90%
17:00 +6°C° 0.5 mm 7 mps 733 mmHg 90%
18:00 +7°C° 0.5 mm 6 mps 734 mmHg 90%
19:00 +7°C° 0.5 mm 6 mps 734 mmHg 90%
20:00 +7°C° 0.4 mm 5 mps 735 mmHg 89%
21:00 +7°C° 0.4 mm 5 mps 735 mmHg 89%
22:00 +7°C° 0.4 mm 5 mps 735 mmHg 89%
23:00 +7°C° 0.5 mm 4 mps 735 mmHg 90%
Show more